Content
SEND FEEDBACK

Daily
Averages
Monthly
Summary
Spain

POZUELO DE ALARCON, SPAIN


Home > Europe > Spain
Elevation: 2156 feet     Latitude: 40 24N     Longitude: 003 42W

WEATHER
 
SELECT A DAY
Number of Records: 162,124;   Date Range: 7/1/96 - 12/17/14
 
SHARE

PRINT THIS DATA

[ ← Previous Day ]
WEATHER ALMANAC - JANUARY 31, 2013
[ Next Day → ]
[ °C ]   °F
Weather ElementAverageHighLow
Temperature49.9 °F59 °F (3:00 pm)35.6 °F (7:30 am)
Dewpoint41.6 °F44.6 °F (7:30 pm)35.6 °F (7:30 am)
Humidity75.4 %100 % (7:30 am)55 % (3:00 pm)
Barometer30.48 in30.54 in (10:30 am)30.45 in (3:00 pm)
Wind Speed1 mph3.5 mph (5:00 pm)
Weather ElementAverage
Visibility5 mi
Wind DirectionNNE (23.3 °)

Weather ElementTotal
Precipitation---
Heating Degree Days17.7 (Base 65)
Averaged from 27 records on January 31, 2013
WEATHER CONDITIONS BREAKOUT
WIND DIRECTION BREAKOUT
WEATHER BY HOUR - JANUARY 31, 2013
[ °C ]   °F
Local TimeTemperatureDewpointHumidityBarometerVisibilityWind DirectionWind SpeedGust SpeedPrecipitationEventsConditions
7:30 AM35.6 °F35.6 °F100 %30.48 inCalmClear
8:00 AM37.4 °F37.4 °F100 %30.51 inCalmClear
8:30 AM37.4 °F37.4 °F100 %30.51 in6.2 miCalmFogShallow Fog
9:00 AM37.4 °F37.4 °F100 %30.51 in5.0 miCalmFogFog
9:30 AM39.2 °F39.2 °F100 %30.51 in3.1 miCalmFogFog
10:00 AM42.8 °F42.8 °F100 %30.51 in4.3 miCalmFogFog
10:30 AM44.6 °F41.0 °F87 %30.54 in4.3 miVariable1.2 mph
11:00 AM46.4 °F41.0 °F81 %30.54 in4.3 miVariable2.3 mph
11:30 AM48.2 °F41.0 °F76 %30.54 in4.3 miVariable1.2 mph
12:00 PM50.0 °F41.0 °F71 %30.54 in4.3 miCalm
12:30 PM53.6 °F41.0 °F62 %30.54 inCalmClear
1:30 PM55.4 °F42.8 °F63 %30.51 in5.6 miCalm
2:00 PM57.2 °F42.8 °F59 %30.48 in5.6 miCalm
2:30 PM57.2 °F42.8 °F59 %30.48 in5.6 miVariable1.2 mph
3:00 PM59.0 °F42.8 °F55 %30.45 in5.6 miCalm
3:30 PM59.0 °F42.8 °F55 %30.45 in5.6 miVariable1.2 mph
4:00 PM59.0 °F42.8 °F55 %30.45 in5.6 miVariable2.3 mph
4:30 PM59.0 °F42.8 °F55 %30.45 in5.6 miVariable2.3 mph
5:00 PM59.0 °F42.8 °F55 %30.45 inSSW (200°)3.5 mphClear
5:30 PM59.0 °F42.8 °F55 %30.45 inSSW (210°)3.5 mphClear
6:00 PM57.2 °F42.8 °F59 %30.45 inSW (220°)3.5 mphClear
6:30 PM53.6 °F42.8 °F67 %30.45 inVariable2.3 mphClear
7:00 PM51.8 °F41.0 °F67 %30.45 inVariable1.2 mphClear
7:30 PM50.0 °F44.6 °F82 %30.45 inCalmClear
8:00 PM46.4 °F42.8 °F87 %30.45 inCalmClear
8:30 PM48.2 °F44.6 °F87 %30.45 inCalmClear
9:00 PM44.6 °F44.6 °F100 %30.45 inVariable2.3 mphClear
Hourly data recorded from LEVS, located miles away from Pozuelo de Alarcon, Spain







STORIES FROM OUR PARTNERS